RH
45 42 76 68 80 99 80 44 26 20 18 15 15 18 20 20 24 34 44 40 31 17 8 9 10 10 12 11 11 10 9 9 13 12 6 4 5 42 32 21 18 44 49
29 32 40 72 66 78 73 90 96 74 79 76 74 72 73 70 58 42 56 58 57 55 48 29 10 9 9 9 9 9 8 7 7 13 12 5 4 13 30 27 37 43 45
38 15 14 56 86 68 62 43 43 49 48 47 46 47 45 49 48 40 35 44 48 44 37 40 39 28 10 8 8 8 7 7 6 6 13 11 5 4 7 12 18 42 98
36 14 9 29 71 66 56 44 30 29 34 35 27 38 47 45 41 29 22 20 18 26 34 29 24 26 32 20 10 7 7 7 6 6 6 13 10 5 4 5 13 76 89
60 56 14 9 11 22 50 36 14 14 12 10 8 14 23 30 47 42 15 7 7 7 11 27 29 25 21 23 28 18 8 5 5 4 5 7 12 9 4 4 25 93 97
67 70 64 61 42 26 12 6 7 8 10 8 10 6 6 6 8 8 6 6 7 6 6 7 35 36 24 21 18 24 22 12 5 4 4 5 8 12 7 5 8 50 97
49 45 32 26 33 57 74 76 71 73 71 76 74 67 66 64 56 49 39 21 10 6 6 5 8 46 37 29 35 23 18 18 10 5 4 4 5 10 12 6 10 54 89
34 35 35 35 38 42 39 34 28 45 42 51 54 43 32 40 38 48 74 72 68 23 4 4 6 15 48 43 42 38 25 15 14 8 4 4 4 5 12 10 16 66 96
36 17 13 11 13 19 30 57 67 72 75 82 80 75 61 34 49 35 29 69 82 78 50 5 7 8 23 42 45 45 45 29 14 11 6 4 4 4 7 13 9 19 97
12 12 11 9 9 10 11 13 15 20 25 38 82 72 63 52 25 27 30 28 47 69 78 68 64 40 8 17 22 28 33 46 22 15 9 4 4 4 4 9 13 11 26
12 9 8 8 10 15 30 40 49 57 61 63 62 45 24 29 34 39 30 26 27 40 61 53 47 63 20 6 10 10 7 38 44 34 20 9 7 5 4 6 11 14 14
8 11 17 34 46 51 50 48 52 62 70 75 83 95 100 76 35 42 58 27 22 21 47 45 24 46 58 12 5 6 5 27 51 50 46 31 16 7 5 6 8 13 15
9 32 47 48 45 44 48 58 54 39 25 16 13 15 20 58 100 49 63 50 19 31 22 41 20 22 68 42 5 4 6 69 61 58 68 50 42 16 8 6 8 10 15
30 47 49 45 42 42 49 57 38 23 18 19 20 21 20 23 21 77 72 26 22 24 18 15 9 18 46 87 14 9 12 72 72 65 68 65 63 36 15 9 9 10 13
46 49 49 46 47 54 65 52 30 26 28 31 42 45 33 25 23 21 96 50 24 25 13 13 11 13 18 91 71 11 11 39 70 71 67 61 63 50 35 19 10 13 12
48 49 49 50 52 66 81 66 47 52 53 54 67 64 37 25 40 40 99 87 27 32 18 41 19 15 12 61 100 52 10 12 56 67 65 62 60 53 45 35 24 12 13
47 43 49 46 56 70 93 94 91 93 85 89 83 45 34 54 100 100 100 100 30 22 20 54 80 14 12 31 100 100 44 10 26 69 65 61 58 51 46 36 34 21 13
41 54 51 46 64 73 93 98 91 75 90 86 49 41 64 92 100 100 100 100 89 55 60 46 75 25 14 17 60 100 93 18 15 56 67 64 57 49 46 32 25 25 23
45 66 52 62 74 78 87 82 83 91 68 68 68 61 83 91 100 100 100 100 100 98 83 35 34 16 18 20 24 84 100 60 12 13 29 52 54 38 38 33 28 24 21
60 65 58 72 60 74 86 91 75 40 64 80 74 89 89 74 100 100 100 100 100 92 38 41 21 19 23 24 17 76 100 92 21 11 10 18 28 24 17 16 15 18 20
63 61 67 46 51 77 51 39 50 77 60 72 96 100 100 69 100 100 100 100 100 93 62 46 22 22 26 20 13 99 96 100 28 11 12 15 14 13 13 13 12 10 23
70 63 50 43 41 36 43 48 62 53 70 92 100 100 100 65 100 100 100 100 100 100 50 36 21 28 27 18 15 100 100 100 37 12 12 12 14 16 19 17 15 13 25
73 71 42 40 35 43 59 59 68 71 88 98 100 100 100 71 100 100 100 100 100 95 63 27 24 31 22 15 27 100 100 100 58 13 12 12 12 13 18 23 21 19 15
68 72 38 39 39 49 71 69 75 91 100 100 100 100 100 88 100 100 100 100 90 74 72 39 33 30 22 18 49 100 100 100 88 27 12 11 11 11 12 17 19 22 20
62 55 38 38 44 50 81 76 97 100 100 100 100 100 100 90 96 99 100 96 92 90 85 47 35 25 27 24 43 91 100 100 91 39 16 11 11 12 13 13 13 14 17
58 55 37 37 46 49 81 96 100 100 100 100 100 100 100 97 75 78 92 87 100 94 100 54 30 34 26 21 49 93 100 100 35 16 16 17 16 13 11 13 25 23 23
Wind_Speed
36 29 21 22 28 32 36 38 41 43 44 45 46 46 47 47 46 44 42 42 41 40 41 40 39 40 40 40 41 38 35 33 35 35 33 34 34 30 28 29 30 27 28
34 31 28 27 30 31 33 35 36 38 39 41 43 45 45 45 45 45 43 42 42 42 41 43 45 44 43 43 42 41 38 36 34 37 37 35 35 34 31 31 28 28 30
34 38 33 30 32 33 32 34 35 38 39 39 42 44 44 44 44 42 40 41 42 43 44 44 46 47 48 47 46 44 42 40 37 36 38 38 38 37 35 31 30 29 31
26 32 36 34 32 33 34 36 40 41 44 45 47 46 47 47 46 44 42 42 42 42 43 43 45 48 49 50 49 48 47 44 41 40 39 40 40 38 36 34 28 30 25
28 24 30 36 37 38 41 42 44 45 46 47 47 48 49 50 51 51 49 48 49 47 46 45 44 43 46 49 50 49 48 46 45 42 42 41 40 39 38 35 32 31 33
27 26 27 29 30 34 37 43 45 47 49 50 52 54 55 55 57 57 57 57 59 59 56 50 47 45 44 45 48 52 51 49 46 45 43 43 42 40 40 40 38 34 32
26 28 30 30 31 35 36 40 40 43 45 44 47 48 49 49 53 53 54 52 53 52 55 54 51 48 47 43 41 44 51 51 49 48 46 44 44 43 42 42 38 34 36
28 31 33 35 37 38 41 44 46 48 50 51 53 56 55 50 52 51 50 48 50 52 47 52 50 51 50 48 44 41 40 48 52 50 50 46 46 45 45 45 42 46 49
36 38 40 41 42 45 47 49 51 53 55 56 58 60 63 64 60 56 53 49 47 48 49 51 52 51 53 51 49 44 41 39 46 51 51 50 49 49 48 48 47 49 35
40 43 45 48 50 51 53 53 55 57 60 61 62 63 64 66 64 60 56 55 52 48 46 44 47 53 55 55 51 48 45 41 39 45 49 51 51 52 52 50 50 50 56
42 46 51 52 50 50 52 53 56 59 62 64 66 65 67 66 68 66 61 59 58 55 52 47 44 44 50 57 56 50 49 46 41 42 45 49 50 53 53 53 52 51 47
46 49 51 50 50 53 58 61 65 67 69 71 73 73 72 71 70 71 71 62 60 59 57 52 47 41 45 48 54 54 51 50 43 42 43 44 46 51 54 54 53 50 48
47 46 46 49 53 56 60 63 63 65 66 68 69 69 70 74 76 73 74 70 62 60 62 58 53 44 41 43 45 47 47 48 45 43 44 43 42 46 52 54 54 52 49
47 46 48 52 55 58 60 61 60 59 58 57 59 65 70 71 73 80 76 70 66 62 62 61 57 49 43 38 44 43 46 47 46 46 44 44 41 41 45 51 54 53 50
48 50 52 56 60 61 60 60 61 61 62 64 64 67 67 71 76 81 77 70 68 64 61 60 57 50 45 40 44 47 47 48 48 49 46 46 43 40 40 40 49 52 51
50 52 56 59 63 60 58 60 60 60 61 63 64 64 64 64 65 69 72 67 68 65 59 54 57 53 45 39 44 50 48 50 50 50 49 47 45 43 41 37 36 45 50
52 55 60 63 61 56 54 55 53 53 55 56 58 60 58 54 54 63 68 70 65 66 61 60 59 56 49 43 44 45 48 49 50 50 50 49 47 47 46 42 40 36 44
55 58 62 62 56 52 49 48 47 50 51 53 54 53 48 47 47 55 63 67 60 62 62 58 62 59 47 42 43 42 44 49 50 50 50 50 49 49 48 46 43 41 38
59 61 63 56 51 47 45 46 46 46 48 46 44 37 39 42 42 50 60 65 59 64 66 64 61 56 49 44 43 39 42 47 49 48 49 51 48 47 50 48 48 46 45
61 63 58 52 45 46 44 43 44 42 37 34 29 30 32 40 39 46 57 68 54 66 61 62 60 53 45 39 42 38 39 43 49 46 45 48 49 45 43 45 47 49 48
62 62 53 46 46 43 43 41 37 31 25 21 21 23 24 36 39 42 56 69 56 66 65 65 59 49 40 40 40 38 38 41 49 45 44 46 45 42 41 42 41 46 49
62 58 50 44 46 44 40 36 27 22 16 14 15 15 17 32 38 40 56 74 62 60 67 67 57 43 42 39 40 39 37 41 48 46 45 46 43 42 42 42 43 43 46
61 52 45 46 44 42 36 29 22 16 12 10 9 9 14 29 36 40 52 67 74 71 73 66 50 46 41 36 42 38 36 38 47 49 48 47 44 45 45 45 44 44 44
58 48 44 44 41 42 34 27 20 15 11 7 5 7 13 26 36 42 57 66 71 71 67 51 48 44 40 38 42 37 34 37 43 45 46 46 45 46 47 48 48 47 47
53 46 42 42 40 39 32 27 21 16 11 5 2 7 15 25 33 38 41 56 62 66 59 50 46 45 39 40 41 35 31 36 39 41 42 42 42 43 45 48 50 51 50
50 44 40 41 39 37 32 28 23 17 12 6 6 9 18 24 29 34 39 46 55 50 50 46 45 40 39 42 40 34 34 38 39 38 37 36 35 36 41 47 52 52 51
Wind_Direction
280 286 265 262 268 265 259 255 255 254 255 257 258 260 262 264 263 262 263 264 261 255 250 246 246 245 243 242 243 244 243 240 235 235 234 230 230 233 233 233 235 233 236
276 279 274 266 264 261 258 259 258 256 254 257 259 259 259 261 261 261 260 259 260 259 255 252 247 245 244 242 241 241 241 240 235 232 234 233 230 231 230 230 230 235 234
275 277 273 268 264 265 261 260 255 253 257 257 257 258 258 255 255 255 255 255 256 257 256 255 252 248 245 244 243 241 240 240 238 232 231 232 232 230 231 232 230 236 239
277 270 267 267 258 256 261 268 269 265 261 260 261 259 257 257 256 254 254 254 253 254 255 254 251 249 247 246 244 244 243 242 240 235 231 230 231 229 230 230 229 230 222
299 293 271 264 265 265 262 265 264 264 265 264 262 262 261 258 254 256 258 257 257 256 252 251 250 250 248 246 245 243 242 241 240 235 231 229 229 231 228 227 224 229 230
297 297 296 291 282 275 269 269 269 269 267 266 265 261 260 260 259 257 257 259 260 260 256 249 248 250 251 245 242 241 241 240 238 235 230 228 228 228 229 228 225 232 225
294 295 292 288 284 281 277 274 270 269 268 265 265 265 263 262 261 261 259 257 255 251 250 249 245 243 245 242 238 239 238 237 237 236 231 228 226 227 226 227 226 215 216
293 288 286 283 280 277 276 274 273 270 271 269 270 270 268 265 264 263 258 256 254 253 248 241 242 240 237 240 240 239 237 235 235 234 233 229 226 225 226 225 222 217 224
298 295 292 288 284 280 277 273 272 270 269 267 267 269 270 269 266 263 260 254 254 254 248 240 239 242 238 236 239 239 240 239 235 233 233 230 227 225 226 226 225 225 238
299 297 295 292 288 282 277 274 271 269 268 267 265 264 264 266 266 263 258 254 251 249 250 247 244 238 239 235 235 238 240 241 238 233 230 229 227 224 224 225 226 228 233
297 294 294 292 287 282 280 278 275 271 268 267 267 264 263 261 261 260 256 254 249 247 244 246 244 239 236 236 233 234 238 238 237 234 230 229 227 223 222 224 226 228 231
301 299 297 295 291 287 283 281 277 273 270 268 266 263 259 257 254 255 255 250 249 246 244 243 240 237 235 234 236 233 232 235 233 230 229 228 226 222 221 222 224 227 228
304 301 299 299 295 291 286 280 276 273 272 271 269 267 264 258 252 248 248 249 244 242 243 241 240 235 235 231 231 231 228 224 229 225 226 225 222 222 221 221 222 224 226
310 306 305 305 305 300 291 281 277 275 274 272 273 271 267 259 257 249 241 244 242 238 238 241 237 235 230 230 224 227 225 219 223 224 221 222 222 221 221 221 221 222 223
314 310 309 309 308 301 290 282 277 274 274 274 274 272 270 263 257 245 240 235 237 234 232 236 238 234 227 227 226 223 223 221 219 221 221 219 219 219 220 222 222 221 221
315 314 314 312 309 300 289 281 278 278 277 275 272 271 272 264 252 234 232 226 229 230 228 229 235 233 225 221 228 225 220 221 219 219 220 219 220 219 219 219 222 223 221
318 319 319 317 310 302 292 287 285 283 280 278 275 275 270 253 241 229 223 216 221 226 224 218 231 235 221 214 222 230 221 221 219 219 219 221 222 221 221 223 223 222 223
324 324 325 319 312 306 301 294 290 286 285 282 279 275 255 246 236 224 215 207 211 218 222 218 225 232 225 223 217 226 225 216 220 219 220 222 224 223 223 222 223 226 224
328 328 327 320 317 314 307 301 297 292 290 283 278 263 249 239 230 220 207 195 209 210 218 220 223 228 227 219 216 221 226 213 217 220 221 222 221 219 220 225 225 225 227
334 333 328 324 323 318 315 309 304 299 292 284 268 260 250 231 221 212 200 189 199 214 216 219 220 220 220 217 217 217 223 215 213 216 218 219 217 218 220 221 221 222 224
337 336 331 332 330 326 321 316 311 303 295 280 270 263 251 218 208 202 194 186 192 209 211 217 216 214 217 218 211 216 220 214 210 212 212 210 209 213 216 218 220 220 220
340 338 338 337 336 334 332 328 323 314 301 283 276 261 237 202 197 195 189 190 194 203 211 214 215 210 217 216 208 214 218 213 207 209 209 209 212 214 215 217 218 219 218
344 341 344 344 344 345 342 342 339 332 316 294 282 249 210 195 190 189 183 192 195 201 207 209 208 214 213 210 207 210 216 211 206 209 210 213 216 218 217 217 219 219 220
347 348 351 352 353 352 352 352 352 349 334 308 269 208 191 186 187 186 183 192 198 205 208 202 205 207 206 206 206 208 213 208 205 209 214 219 221 222 222 222 222 220 220
352 356 357 358 0 359 2 2 1 358 353 339 209 178 176 176 182 184 186 190 199 206 203 198 200 199 201 202 203 204 209 206 201 203 211 217 219 222 223 224 222 221 218
0 3 4 5 6 8 12 14 12 15 22 53 113 147 160 163 171 176 180 188 193 197 194 194 195 194 199 198 197 202 204 197 197 199 209 215 220 224 225 225 221 216 214